Burlington, NC

9:28 PM EST on February 24, 2018 (GMT -0500)
Burlington-Alamance Regional

Weather History for KBUY - February, 2014

Change the Weather History Date:

Friday, February 28, 2014

  Actual Average Record
Temperature  
Mean Temperature 34 °F -  
Max Temperature 43 °F 56 °F 82 °F (1977)
Min Temperature 25 °F 31 °F 19 °F (2002)
Degree Days  
Heating Degree Days 31    
Moisture  
Dew Point 9 °F    
Average Humidity 36    
Maximum Humidity 46    
Minimum Humidity 25    
Precipitation  
Precipitation 0.00 in - - ()
Sea Level Pressure  
Sea Level Pressure 30.23 in    
Wind  
Wind Speed 6 mph (NE)    
Max Wind Speed 9 mph    
Max Gust Speed -    
Visibility 10 miles    
Events      
Averages and records for this station are not official NWS values.
T = Trace of Precipitation, MM = Missing Value Source: NWS Daily Summary

Daily Weather History Graph

Daily Weather History Graph

Search for Another Location

Airport or City:

Trip Planner

Search our weather history database for the weather conditions in past years. The results will help you decide how hot, cold, wet, or windy it might be!

Date:

Astronomy

Feb. 28, 2014 Rise Set
Actual Time 6:49 AM EST 6:11 PM EST
Civil Twilight 6:23 AM EST 6:37 PM EST
Nautical Twilight 5:53 AM EST 7:07 PM EST
Astronomical Twilight 5:24 AM EST 7:37 PM EST
Moon 6:02 AM EST (2/28) 5:46 PM EST (2/28)
Length of Visible Light 12h 14m
Length of Day
11h 22m
Waning Crescent, 1% of the Moon is Illuminated
Feb 28
Waning Crescent
Mar 1
New
Mar 8
First Quarter
Mar 16
Full
Mar 23
Last Quarter

Hourly Weather History & Observations

Time (EST) Temp. Windchill Dew Point Humidity Pressure Visibility Wind Dir Wind Speed Gust Speed Precip Events Conditions
12:54 AM 33.1 °F 26.9 °F 6.1 °F 32% 30.04 in 10.0 mi NNE 6.9 mph - N/A   Clear
1:54 AM 30.0 °F 23.2 °F 7.0 °F 38% 30.07 in 10.0 mi NNE 6.9 mph - N/A   Clear
2:54 AM 28.0 °F 22.8 °F 7.0 °F 41% 30.09 in 10.0 mi North 4.6 mph - N/A   Clear
3:54 AM 27.0 °F 21.6 °F 7.0 °F 43% 30.11 in 10.0 mi NNE 4.6 mph - N/A   Clear
4:54 AM 25.0 °F 17.1 °F 7.0 °F 46% 30.14 in 10.0 mi NNE 6.9 mph - N/A   Clear
5:54 AM 26.1 °F 19.4 °F 7.0 °F 44% 30.17 in 10.0 mi NE 5.8 mph - N/A   Clear
6:54 AM 26.1 °F 18.4 °F 7.0 °F 44% 30.20 in 10.0 mi NE 6.9 mph - N/A   Clear
7:54 AM 28.0 °F 20.8 °F 9.0 °F 45% 30.25 in 10.0 mi ENE 6.9 mph - N/A   Clear
8:54 AM 30.0 °F 21.7 °F 10.0 °F 43% 30.28 in 10.0 mi ENE 9.2 mph - N/A   Clear
9:54 AM 33.1 °F 25.5 °F 10.0 °F 38% 30.30 in 10.0 mi NE 9.2 mph - N/A   Clear
10:54 AM 34.0 °F 27.2 °F 10.0 °F 37% 30.32 in 10.0 mi NNE 8.1 mph - N/A   Clear
11:54 AM 37.9 °F 32.7 °F 10.0 °F 32% 30.32 in 10.0 mi North 6.9 mph - N/A   Clear
12:54 PM 39.0 °F 34.8 °F 8.1 °F 28% 30.29 in 10.0 mi Variable 5.8 mph - N/A   Clear
1:54 PM 42.1 °F 39.2 °F 9.0 °F 26% 30.26 in 10.0 mi North 4.6 mph - N/A   Clear
2:54 PM 43.0 °F 38.2 °F 9.0 °F 25% 30.25 in 10.0 mi North 8.1 mph - N/A   Clear
3:54 PM 43.0 °F 41.3 °F 9.0 °F 25% 30.24 in 10.0 mi Variable 3.5 mph - N/A   Clear
4:54 PM 43.0 °F 38.2 °F 10.0 °F 26% 30.25 in 10.0 mi NNE 8.1 mph - N/A   Clear
5:54 PM 39.9 °F 36.7 °F 10.9 °F 31% 30.25 in 10.0 mi NE 4.6 mph - N/A   Clear
6:54 PM 37.9 °F 33.5 °F 10.9 °F 33% 30.27 in 10.0 mi NE 5.8 mph - N/A   Clear
7:54 PM 36.0 °F 32.1 °F 10.9 °F 36% 30.27 in 10.0 mi NE 4.6 mph - N/A   Clear
8:54 PM 35.1 °F 29.3 °F 10.0 °F 35% 30.28 in 10.0 mi NE 6.9 mph - N/A   Clear
9:54 PM 32.0 °F 28.7 °F 10.0 °F 40% 30.29 in 10.0 mi ENE 3.5 mph - N/A   Clear
10:54 PM 30.9 °F 27.5 °F 10.0 °F 42% 30.30 in 10.0 mi NE 3.5 mph - N/A   Mostly Cloudy
11:54 PM 33.1 °F 30.0 °F 12.0 °F 42% 30.30 in 10.0 mi NE 3.5 mph - N/A   Overcast